Waarnemingen

Advertentie
Mijn weer
Fürstenzell, Duitsland (10895): temperatuur & dauwpunt: 18.02.2017 09:00:00 - 24.02.2017 09:00:00 (CET)Fürstenzell, Duitsland (10895): temperatuur 5cm & temperatuur -5cm: 18.02.2017 09:00:00 - 24.02.2017 09:00:00 (CET)Fürstenzell, Duitsland (10895): temperatuur -20cm & temperatuur -100cm: 18.02.2017 09:00:00 - 24.02.2017 09:00:00 (CET)Fürstenzell, Duitsland (10895): windsnelheid & windstoten: 18.02.2017 09:00:00 - 24.02.2017 09:00:00 (CET)Fürstenzell, Duitsland (10895): windrichting: 18.02.2017 09:00:00 - 24.02.2017 09:00:00 (CET)Fürstenzell, Duitsland (10895): luchtdruk: 18.02.2017 09:00:00 - 24.02.2017 09:00:00 (CET)Fürstenzell, Duitsland (10895): zicht: 18.02.2017 09:00:00 - 24.02.2017 09:00:00 (CET)Fürstenzell, Duitsland (10895): Zonneschijnduur: 18.02.2017 09:00:00 - 24.02.2017 09:00:00 (CET)Fürstenzell, Duitsland (10895): neerslag: 18.02.2017 09:00:00 - 24.02.2017 09:00:00 (CET)
Datum & Tijd tt [°C] td [°C] tt 5cm [°C] tt -5cm [°C] tt -20cm [°C] tt -100cm [°C] ff [km/u] ff [kn] fx [km/u] fx [kn] dd ppp [hPa] vv [km] sd [min] rr [mm]
24.02.2017 09:00:00 5,2 -1,3 5,0 3,9 5,2 3,5 34 19 63 34 W 1009,5 67 0 0,0
24.02.2017 08:00:00 5,3 -1,9 4,9 3,7 5,4 3,4 41 22 61 33 W 1008,1 70 0 0,0
24.02.2017 07:00:00 5,6 -2,0 4,9 4,0 5,6 3,4 43 23 79 43 W 1006,6 62 0 0,0
24.02.2017 06:00:00 6,4 -1,6 5,8 4,5 5,7 3,4 45 24 72 39 W 1005,0 69 0 0,0
24.02.2017 05:00:00 6,6 0,2 5,9 4,9 5,9 3,4 33 18 61 33 W 1003,8 59 0 0,0
24.02.2017 04:00:00 7,0 -0,1 6,4 5,3 6,0 3,4 33 18 65 35 W 1002,5 69 0 0,0
24.02.2017 03:00:00 7,7 1,7 7,2 5,8 6,1 3,4 41 22 64 34 W 1001,7 70 0 0,0
24.02.2017 02:00:00 8,1 3,0 7,4 5,9 6,2 3,3 38 20 55 30 WNW 1000,8 70 0 0,0
24.02.2017 01:00:00 10,1 2,0 8,6 6,2 6,3 3,3 28 15 64 34 W 999,6 67 0 0,0
24.02.2017 00:00:00 12,5 0,2 11,2 6,5 6,4 3,3 46 25 74 40 W 998,8 50 0 0,0
23.02.2017 23:00:00 13,4 -1,2 11,9 6,7 6,5 3,3 36 20 63 34 WZW 998,5 56 0 0,0
23.02.2017 22:00:00 14,0 -2,1 12,4 6,9 6,7 3,3 40 22 67 36 W 998,3 59 0 0,0
23.02.2017 21:00:00 13,5 -0,7 11,8 7,1 6,8 3,3 19 10 37 20 WZW 998,3 70 0 0,0
23.02.2017 20:00:00 13,5 -0,2 11,4 7,4 6,9 3,3 18 10 31 17 WZW 998,3 70 0 0,0
23.02.2017 19:00:00 13,9 0,0 12,2 7,9 7,0 3,2 22 12 44 24 WZW 998,6 70 0 0,0
23.02.2017 18:00:00 14,6 -0,5 12,9 8,5 7,0 3,2 28 15 55 30 WZW 998,5 67 0 0,0
23.02.2017 17:00:00 15,8 -1,3 14,1 9,6 6,9 3,2 37 20 58 32 WZW 998,5 70 0 0,0
23.02.2017 16:00:00 14,7 4,4 13,6 10,9 6,6 3,2 11 6 21 12 ZW 1000,0 70 28 0,0
23.02.2017 15:00:00 15,6 3,4 16,6 11,4 6,3 3,2 8 4 18 10 ZW 1001,2 56 47 0,0
23.02.2017 14:00:00 14,3 2,9 15,0 10,8 6,0 3,2 11 6 21 11 WZW 1003,2 67 15 0,0
23.02.2017 13:00:00 13,1 2,8 13,0 10,7 5,6 3,1 14 8 33 18 WZW 1004,8 54 41 0,0
23.02.2017 12:00:00 12,5 3,2 14,6 10,3 5,3 3,1 21 11 33 18 WZW 1006,3 38 60 0,0
23.02.2017 11:00:00 10,4 3,4 12,0 8,6 5,1 3,1 26 14 39 21 W 1007,5 22 60 0,0
23.02.2017 10:00:00 8,9 3,9 9,9 7,0 5,0 3,1 28 15 44 24 W 1008,5 30 47 0,0
23.02.2017 09:00:00 7,9 4,5 7,9 5,8 5,0 3,1 17 9 31 17 WZW 1009,2 45 29 0,0
23.02.2017 08:00:00 7,5 4,0 7,0 5,2 5,0 3,1 20 11 35 19 WZW 1009,6 52 6 0,0
23.02.2017 07:00:00 7,4 3,9 6,4 5,4 5,1 3,1 23 12 36 20 WZW 1009,5 55 0 0,0
23.02.2017 06:00:00 7,4 4,1 6,9 5,5 5,1 3,0 22 12 37 20 WZW 1009,6 55 0 0,0
23.02.2017 05:00:00 7,6 4,3 7,0 5,7 5,1 3,0 18 10 32 17 WZW 1010,0 46 0 0,0
23.02.2017 04:00:00 7,9 4,5 7,3 5,8 5,1 3,0 21 11 40 22 WZW 1009,9 50 0 0,0
23.02.2017 03:00:00 8,4 4,6 7,9 5,9 5,2 3,0 27 15 49 26 W 1009,9 51 0 0,0
23.02.2017 02:00:00 8,4 4,7 7,8 5,8 5,2 3,0 32 17 50 27 WZW 1010,0 66 0 0,0
23.02.2017 01:00:00 8,4 4,5 7,9 5,8 5,2 3,0 33 18 55 30 W 1010,2 62 0 0,0
23.02.2017 00:00:00 8,4 4,3 7,9 5,9 5,3 3,0 31 17 54 29 W 1010,6 59 0 0,0
22.02.2017 23:00:00 8,4 4,2 7,8 5,9 5,3 2,9 31 17 49 26 W 1010,8 58 0 0,0
22.02.2017 22:00:00 8,5 4,3 7,7 6,0 5,3 2,9 23 12 45 24 WZW 1010,9 59 0 0,0
22.02.2017 21:00:00 8,7 4,3 8,1 6,2 5,4 2,9 25 14 46 25 WZW 1010,8 38 0 0,0
22.02.2017 20:00:00 8,9 4,2 8,2 6,4 5,4 2,9 21 11 49 26 WZW 1010,7 70 0 0,0
22.02.2017 19:00:00 9,0 4,6 8,4 6,6 5,4 2,9 27 14 47 25 W 1011,1 70 0 0,0
22.02.2017 18:00:00 9,1 4,9 8,5 6,8 5,5 2,9 28 15 43 23 W 1011,1 70 0 0,0
22.02.2017 17:00:00 9,4 4,7 8,9 7,0 5,4 2,9 27 14 53 29 W 1010,9 70 0 0,0
22.02.2017 16:00:00 9,6 4,8 9,2 7,3 5,4 2,8 36 20 56 30 W 1011,2 61 0 0,0
22.02.2017 15:00:00 9,6 5,2 9,5 7,5 5,3 2,8 32 17 53 29 WZW 1011,2 68 0 0,0
22.02.2017 14:00:00 9,7 5,3 9,3 7,5 5,2 2,8 30 16 51 28 WZW 1011,6 61 0 0,0
22.02.2017 13:00:00 10,0 5,9 9,6 8,0 5,0 2,8 29 16 54 29 WZW 1012,0 70 0 0,0
22.02.2017 12:00:00 10,0 6,2 10,2 8,1 4,8 2,8 34 18 59 32 WZW 1012,4 63 0 0,0
22.02.2017 11:00:00 9,7 6,8 9,8 7,8 4,7 2,8 28 15 51 27 WZW 1012,9 68 0 0,0
22.02.2017 10:00:00 9,1 7,3 9,3 7,0 4,6 2,8 27 14 44 24 WZW 1013,6 50 0 0,0
22.02.2017 09:00:00 8,5 7,3 8,2 6,4 4,5 2,8 24 13 37 20 WZW 1013,6 35 0 0,3
22.02.2017 08:00:00 8,0 7,2 7,4 6,1 4,5 2,8 24 13 41 22 WZW 1013,8 24 0 0,1
22.02.2017 07:00:00 8,0 7,2 7,5 6,0 4,5 2,7 26 14 44 24 WZW 1013,7 28 0 0,0
22.02.2017 06:00:00 7,8 7,5 7,3 6,0 4,5 2,7 26 14 38 20 WZW 1013,8 16 0 0,2
22.02.2017 05:00:00 7,7 7,7 7,4 6,0 4,5 2,7 20 11 31 17 WZW 1014,5 3,9 0 0,6
22.02.2017 04:00:00 7,5 7,5 7,3 5,7 4,4 2,7 16 8 27 15 WZW 1015,2 3,1 0 0,7
22.02.2017 03:00:00 7,1 7,1 6,9 5,6 4,4 2,7 14 8 25 14 WZW 1015,9 3,2 0 0,0
22.02.2017 02:00:00 6,6 6,6 6,5 5,6 4,4 2,7 11 6 19 10 WZW 1016,5 3,7 0 0,3
22.02.2017 01:00:00 6,9 6,8 6,5 5,8 4,5 2,7 14 7 26 14 W 1017,0 8 0 0,3
22.02.2017 00:00:00 7,3 7,3 6,9 5,8 4,6 2,7 13 7 25 14 W 1017,0 9 0 0,6
21.02.2017 23:00:00 7,3 7,3 7,0 5,7 4,3 2,7 16 9 29 16 W 1017,0 6 0 1,3
21.02.2017 22:00:00 7,1 7,1 6,8 5,6 4,2 2,7 17 9 30 16 W 1017,5 8 0 0,6
21.02.2017 21:00:00 6,8 6,7 6,4 5,6 4,2 2,7 16 9 28 15 WZW 1017,3 11 0 0,2
21.02.2017 20:00:00 7,0 6,2 6,3 5,6 4,3 2,7 16 8 26 14 WZW 1017,2 8 0 0,0
21.02.2017 19:00:00 7,1 6,4 6,4 5,8 4,3 2,7 18 10 30 16 W 1016,6 24 0 0,2
21.02.2017 18:00:00 7,0 6,3 6,3 6,0 4,3 2,7 23 13 37 20 W 1016,3 12 0 0,8
21.02.2017 17:00:00 7,0 6,3 6,5 6,3 4,2 2,6 22 12 50 27 W 1015,8 14 0 2,7
21.02.2017 16:00:00 8,1 7,9 7,8 6,7 3,9 2,6 21 12 44 24 W 1015,0 7 0 0,3
21.02.2017 15:00:00 8,2 7,6 7,9 6,7 3,8 2,6 26 14 42 23 W 1014,3 18 0 0,0
21.02.2017 14:00:00 8,2 7,3 8,0 6,6 3,8 2,6 28 15 50 27 W 1014,3 32 0 0,0
21.02.2017 13:00:00 8,0 7,2 7,8 6,3 3,9 2,6 27 15 48 26 WZW 1014,2 28 0 0,4
21.02.2017 12:00:00 7,4 6,9 7,1 5,8 3,8 2,6 30 16 51 28 WZW 1014,7 8 0 0,6
21.02.2017 11:00:00 7,2 6,8 7,0 5,3 3,6 2,6 31 17 44 24 WZW 1014,8 7 0 2,1
21.02.2017 10:00:00 6,8 6,5 6,4 4,8 3,5 2,6 21 12 35 19 W 1015,2 3,2 0 2,6
21.02.2017 09:00:00 6,4 6,3 6,1 4,5 3,1 2,6 21 11 38 20 WZW 1015,1 2,8 0 1,6
21.02.2017 08:00:00 6,5 5,9 5,9 4,2 2,7 2,6 25 13 41 22 WZW 1015,2 9 0 0,4
21.02.2017 07:00:00 6,2 5,7 5,6 4,0 2,7 2,6 21 11 36 20 WZW 1015,2 5 0 0,9
21.02.2017 06:00:00 6,0 5,9 5,7 3,9 3,0 2,6 19 10 35 19 W 1015,8 3,0 0 1,8
21.02.2017 05:00:00 6,1 5,6 5,7 3,7 2,3 2,6 22 12 39 21 WZW 1016,1 11 0 0,1
21.02.2017 04:00:00 5,7 5,7 5,3 3,4 2,4 2,6 21 11 36 20 WZW 1016,7 3,0 0 1,4
21.02.2017 03:00:00 5,5 5,5 5,1 3,1 2,1 2,6 24 13 46 25 WZW 1017,4 1,9 0 1,0
21.02.2017 02:00:00 5,2 5,2 4,8 2,7 2,3 2,6 25 14 38 21 WZW 1018,0 1,6 0 1,6
21.02.2017 01:00:00 4,7 4,7 4,4 2,4 2,1 2,6 17 9 26 14 ZW 1018,8 0,4 0 1,6
21.02.2017 00:00:00 4,7 4,6 4,3 2,2 1,7 2,6 16 8 27 14 ZW 1018,8 2,2 0 1,8
20.02.2017 23:00:00 4,8 4,1 3,9 2,0 1,1 2,6 17 9 32 18 WZW 1019,1 5 0 1,3
20.02.2017 22:00:00 5,0 3,7 3,9 1,8 1,0 2,6 19 11 27 15 WZW 1019,3 5 0 1,1
20.02.2017 21:00:00 5,7 2,7 3,7 1,6 1,0 2,6 16 9 32 17 WZW 1019,3 9 0 0,2
20.02.2017 20:00:00 6,5 2,0 5,0 1,5 0,9 2,6 23 12 33 18 WZW 1019,4 24 0 0,0
20.02.2017 19:00:00 6,3 2,4 4,6 1,4 0,9 2,7 19 10 32 17 WZW 1019,8 23 0 0,0
20.02.2017 18:00:00 6,5 2,2 4,8 1,3 0,9 2,7 21 12 37 20 WZW 1019,6 21 0 0,0
20.02.2017 17:00:00 6,9 2,4 5,0 1,2 1,0 2,7 18 10 43 23 WZW 1019,9 18 8 0,0
20.02.2017 16:00:00 7,1 2,6 5,2 1,3 0,9 2,7 21 12 33 18 WZW 1020,1 16 22 0,0
20.02.2017 15:00:00 7,0 3,0 4,6 1,0 0,7 2,7 19 10 31 17 WZW 1020,6 15 7 0,0
20.02.2017 14:00:00 6,1 3,2 3,9 0,9 0,6 2,7 16 9 29 16 WZW 1021,8 11 18 0,0
20.02.2017 13:00:00 5,3 3,0 3,5 0,6 0,6 2,7 10 6 20 11 ZW 1022,6 8 5 0,0
20.02.2017 12:00:00 3,8 3,6 2,9 0,5 0,6 2,7 8 5 16 9 ZZW 1023,8 3,3 4 0,0
20.02.2017 11:00:00 3,0 3,0 2,8 0,3 0,6 2,7 8 4 13 7 ZZW 1024,5 2,1 0 0,0
20.02.2017 10:00:00 1,9 1,9 1,7 0,2 0,6 2,7 3 2 11 6 ZZO 1024,7 0,2 0 0,1
20.02.2017 09:00:00 1,5 1,5 1,0 0,2 0,6 2,7 8 4 14 8 ZW 1024,7 0,2 0 0,3
20.02.2017 08:00:00 1,0 1,0 0,5 0,2 0,6 2,7 7 4 10 6 ZW 1024,6 0,1 0 0,1
20.02.2017 07:00:00 0,4 0,4 0,3 0,2 0,6 2,7 3 2 4 2 O 1024,5 0,1 0 0,1
20.02.2017 06:00:00 0,2 0,2 0,2 0,1 0,6 2,7 0 0 9 5 O 1024,6 0,1 0 0,1
20.02.2017 05:00:00 0,2 0,2 0,1 0,1 0,6 2,7 5 3 12 7 Z 1024,7 0,1 0 0,0
20.02.2017 04:00:00 0,2 0,2 0,0 0,1 0,6 2,7 7 4 11 6 Z 1024,2 0,5 0 0,1
20.02.2017 03:00:00 0,0 0,0 0,0 0,1 0,6 2,7 6 3 9 5 ZZW 1024,9 0,2 0 0,0
20.02.2017 02:00:00 0,0 0,0 0,0 0,1 0,6 2,7 4 2 8 5 ZZW 1025,4 0,4 0 0,1
20.02.2017 01:00:00 0,1 0,1 0,0 0,1 0,6 2,7 6 3 11 6 ZW 1025,4 0,7 0 0,0
20.02.2017 00:00:00 0,3 0,3 0,1 0,1 0,6 2,7 8 5 13 7 WZW 1025,4 1,6 0 0,0
19.02.2017 23:00:00 0,2 0,1 0,0 0,1 0,6 2,7 6 3 11 6 ZW 1025,0 2,0 0 0,0
19.02.2017 22:00:00 0,1 0,0 -0,1 0,1 0,6 2,7 8 4 13 7 W 1024,6 1,9 0 0,0
19.02.2017 21:00:00 0,4 0,0 0,0 0,1 0,6 2,7 11 6 18 10 WNW 1024,4 3,2 0 0,0
19.02.2017 20:00:00 0,8 0,3 0,3 0,1 0,6 2,7 8 4 13 7 WNW 1024,3 4,0 0 0,0
19.02.2017 19:00:00 1,1 0,5 0,2 0,1 0,6 2,7 5 3 9 5 NNW 1023,7 6 0 0,0
19.02.2017 18:00:00 0,9 0,4 0,1 0,2 0,6 2,7 6 4 8 4 NO 1023,8 6 0 0,0
19.02.2017 17:00:00 1,4 0,8 0,8 0,2 0,6 2,7 6 3 10 6 NO 1024,0 6 0 0,0
19.02.2017 16:00:00 1,3 0,6 1,6 0,2 0,6 2,7 4 2 7 4 NO 1024,6 4,9 0 0,0
19.02.2017 15:00:00 1,3 0,5 1,9 0,2 0,6 2,7 2 1 8 5 WNW 1025,2 6 0 0,0
19.02.2017 14:00:00 0,5 0,5 1,6 0,2 0,6 2,7 3 2 11 6 W 1025,8 2,9 0 0,0
19.02.2017 13:00:00 0,6 0,6 2,0 0,1 0,6 2,7 6 3 11 6 Z 1026,3 0,1 0 0,0
19.02.2017 12:00:00 0,5 0,5 1,7 0,1 0,6 2,7 5 3 8 4 ZO 1026,9 0,1 0 0,0
19.02.2017 11:00:00 0,5 0,5 1,4 0,1 0,6 2,7 6 3 9 5 ONO 1027,0 0,1 0 0,0
19.02.2017 10:00:00 0,0 0,0 1,1 0,1 0,6 2,7 5 3 8 5 ZO 1027,3 0,1 0 0,0
19.02.2017 09:00:00 -0,1 -0,1 0,3 0,1 0,6 2,7 3 2 6 3 W 1027,2 0,1 0 0,0
19.02.2017 08:00:00 -0,3 -0,3 0,0 0,1 0,5 2,7 2 1 12 7 Z 1027,2 0,1 0 0,0
19.02.2017 07:00:00 -0,3 -0,3 -0,2 0,1 0,5 2,7 9 5 15 8 ZZW 1026,8 0,1 0 0,0
19.02.2017 06:00:00 -0,3 -0,3 -0,2 0,1 0,5 2,7 10 6 16 8 ZZW 1027,1 0,1 0 0,0
19.02.2017 05:00:00 -0,2 -0,2 -0,2 0,1 0,5 2,7 8 4 13 7 ZZW 1027,4 0,1 0 0,0
19.02.2017 04:00:00 0,6 0,6 -2,8 0,1 0,5 2,7 5 3 8 5 O 1027,1 1,3 0 0,0
19.02.2017 03:00:00 0,8 0,8 -0,3 0,1 0,5 2,7 5 3 10 5 NO 1027,3 0,3 0 0,0
19.02.2017 02:00:00 0,7 0,7 0,2 0,1 0,5 2,7 7 4 9 5 NO 1027,5 0,1 0 0,0
19.02.2017 01:00:00 1,9 1,9 -0,1 0,1 0,5 2,7 4 2 6 3 ONO 1027,6 0,2 0 0,0
19.02.2017 00:00:00 2,4 2,4 0,1 0,1 0,5 2,7 2 1 5 3 OZO 1027,8 1,4 0 0,0
18.02.2017 23:00:00 2,5 2,5 0,0 0,1 0,5 2,7 4 2 7 4 ZZW 1027,7 1,8 0 0,0
18.02.2017 22:00:00 2,7 2,6 0,1 0,1 0,5 2,7 4 2 7 4 Z 1028,1 2,0 0 0,0
18.02.2017 21:00:00 2,8 2,6 -0,2 0,1 0,5 2,7 3 2 4 2 Z 1028,0 3,2 0 0,0
18.02.2017 20:00:00 2,9 2,6 -0,4 0,1 0,5 2,7 0 0 4 2 N 1028,0 4,2 0 0,0
18.02.2017 19:00:00 2,9 2,6 -0,1 0,1 0,5 2,7 3 2 6 4 ZW 1028,0 5 0 0,0
18.02.2017 18:00:00 3,3 2,7 0,1 0,1 0,5 2,7 5 3 7 4 ZW 1027,7 7 0 0,0
18.02.2017 17:00:00 3,6 2,6 1,2 0,1 0,5 2,7 3 2 13 7 NW 1027,5 7 0 0,0
18.02.2017 16:00:00 3,7 2,6 1,9 0,1 0,5 2,7 9 5 14 8 WNW 1027,4 7 0 0,0
18.02.2017 15:00:00 3,6 2,5 2,2 0,1 0,5 2,7 9 5 14 8 WNW 1027,3 6 0 0,0
18.02.2017 14:00:00 3,6 2,6 2,4 0,1 0,5 2,7 10 5 18 10 WNW 1027,4 5 0 0,0
18.02.2017 13:00:00 3,6 2,9 2,7 0,1 0,5 2,7 10 5 18 10 WNW 1027,7 4,6 0 0,0
18.02.2017 12:00:00 3,0 2,7 2,0 0,1 0,5 2,7 14 7 21 11 WNW 1028,4 3,3 0 0,0
18.02.2017 11:00:00 2,7 2,7 1,6 0,1 0,5 2,7 12 6 18 10 W 1028,2 2,0 0 0,0
18.02.2017 10:00:00 2,4 2,4 0,8 0,1 0,5 2,7 11 6 17 9 W 1028,0 1,2 0 0,0
18.02.2017 09:00:00 2,1 2,1 0,8 0,1 0,5 2,7 6 3 12 7 WNW 1027,9 0,6 0 0,0

tt = temperatuur
td = dauwpunt
tt 5cm = temperatuur 5cm
tt -5cm = temperatuur -5cm
tt -20cm = temperatuur -20cm
tt -100cm = temperatuur -100cm
ff = windsnelheid
fx = windstoten
dd = windrichting
ppp = luchtdruk
vv = zicht
sd = Zonneschijnduur
rr = neerslag

Weerstations in de omgeving